When you browse on this site, cookies collect data to enhance your experience and personalize the content and advertising you see.
Visit our Privacy Policy to learn more. By continuing to use the site, you agree to this use of cookies and data.

Previsão horária em Lisboa

Hoje, 23 Setembro, Quarta-feira

Tempo Temperatura Precipitação Vento Pressão Humidade
00:00 +20°C° 0 mm 3 m/s 756 mmHg 82%
01:00 +20°C° 0 mm 2 m/s 756 mmHg 83%
02:00 +20°C° 0 mm 2 m/s 756 mmHg 83%
03:00 +20°C° 0 mm 2 m/s 756 mmHg 83%
04:00 +20°C° 0 mm 3 m/s 756 mmHg 82%
05:00 +20°C° 0 mm 3 m/s 756 mmHg 83%
06:00 +21°C° 0 mm 3 m/s 756 mmHg 79%
07:00 +22°C° 0 mm 3 m/s 756 mmHg 74%
08:00 +24°C° 0 mm 3 m/s 757 mmHg 70%
09:00 +25°C° 0.1 mm 3 m/s 757 mmHg 66%
10:00 +26°C° 0.1 mm 4 m/s 757 mmHg 63%
11:00 +26°C° 0.1 mm 4 m/s 757 mmHg 59%
12:00 +27°C° 0 mm 4 m/s 757 mmHg 59%
13:00 +27°C° 0 mm 4 m/s 757 mmHg 59%
14:00 +27°C° 0 mm 4 m/s 756 mmHg 59%
15:00 +26°C° 0 mm 3 m/s 756 mmHg 64%
16:00 +25°C° 0 mm 3 m/s 756 mmHg 69%
17:00 +24°C° 0 mm 2 m/s 756 mmHg 74%
18:00 +23°C° 0 mm 2 m/s 757 mmHg 79%
19:00 +21°C° 0 mm 2 m/s 757 mmHg 83%
20:00 +22°C° 0 mm 1 m/s 758 mmHg 87%
21:00 +22°C° 0.1 mm 1 m/s 758 mmHg 88%
22:00 +21°C° 0.1 mm 1 m/s 758 mmHg 90%
23:00 +21°C° 0.1 mm 1 m/s 758 mmHg 91%

Amanhã, 24 Setembro, Quinta-feira

Tempo Temperatura Precipitação Vento Pressão Humidade
00:00 +21°C° 0 mm 1 m/s 758 mmHg 92%
01:00 +21°C° 0 mm 1 m/s 758 mmHg 92%
02:00 +21°C° 0 mm 1 m/s 757 mmHg 92%
03:00 +21°C° 0 mm 1 m/s 758 mmHg 92%
04:00 +21°C° 0 mm 1 m/s 758 mmHg 93%
05:00 +21°C° 0 mm 1 m/s 758 mmHg 93%
06:00 +22°C° 0.3 mm 1 m/s 758 mmHg 87%
07:00 +23°C° 0.3 mm 1 m/s 758 mmHg 82%
08:00 +24°C° 0.3 mm 2 m/s 759 mmHg 77%
09:00 +25°C° 0 mm 2 m/s 759 mmHg 71%
10:00 +26°C° 0 mm 3 m/s 760 mmHg 64%
11:00 +27°C° 0 mm 3 m/s 760 mmHg 58%
12:00 +27°C° 0 mm 4 m/s 760 mmHg 54%
13:00 +27°C° 0 mm 5 m/s 760 mmHg 51%
14:00 +27°C° 0 mm 5 m/s 760 mmHg 47%
15:00 +26°C° 0 mm 6 m/s 760 mmHg 53%
16:00 +23°C° 0 mm 6 m/s 760 mmHg 58%
17:00 +22°C° 0 mm 6 m/s 761 mmHg 63%
18:00 +21°C° 0 mm 5 m/s 761 mmHg 67%
19:00 +20°C° 0 mm 5 m/s 762 mmHg 71%
20:00 +18°C° 0 mm 4 m/s 763 mmHg 74%
21:00 +18°C° 0 mm 4 m/s 763 mmHg 75%
22:00 +17°C° 0 mm 4 m/s 763 mmHg 75%
23:00 +17°C° 0 mm 4 m/s 763 mmHg 76%

Depois de amanhã, 25 Setembro, Sexta-feira

Tempo Temperatura Precipitação Vento Pressão Humidade
00:00 +17°C° 0 mm 4 m/s 763 mmHg 77%
01:00 +17°C° 0 mm 4 m/s 764 mmHg 79%
02:00 +17°C° 0 mm 4 m/s 764 mmHg 80%
03:00 +15°C° 0 mm 4 m/s 764 mmHg 80%
04:00 +15°C° 0 mm 5 m/s 764 mmHg 79%
05:00 +15°C° 0 mm 5 m/s 764 mmHg 79%
06:00 +16°C° 0 mm 5 m/s 765 mmHg 73%
07:00 +17°C° 0 mm 5 m/s 765 mmHg 68%
08:00 +20°C° 0 mm 6 m/s 766 mmHg 62%
09:00 +21°C° 0 mm 6 m/s 766 mmHg 55%
10:00 +22°C° 0 mm 6 m/s 766 mmHg 49%
11:00 +23°C° 0 mm 6 m/s 766 mmHg 42%
12:00 +23°C° 0 mm 7 m/s 766 mmHg 41%
13:00 +23°C° 0 mm 7 m/s 765 mmHg 40%
14:00 +23°C° 0 mm 8 m/s 765 mmHg 38%
15:00 +22°C° 0 mm 8 m/s 765 mmHg 44%
16:00 +20°C° 0 mm 8 m/s 765 mmHg 49%
17:00 +18°C° 0 mm 8 m/s 765 mmHg 55%
18:00 +17°C° 0 mm 8 m/s 765 mmHg 59%
19:00 +16°C° 0 mm 7 m/s 766 mmHg 63%
20:00 +16°C° 0 mm 6 m/s 766 mmHg 67%
21:00 +15°C° 0 mm 6 m/s 766 mmHg 69%
22:00 +15°C° 0 mm 6 m/s 766 mmHg 71%
23:00 +15°C° 0 mm 7 m/s 766 mmHg 72%

26 Setembro, Sábado

Tempo Temperatura Precipitação Vento Pressão Humidade
00:00 +15°C° 0 mm 6 m/s 765 mmHg 73%
01:00 +15°C° 0 mm 5 m/s 765 mmHg 73%
02:00 +14°C° 0 mm 5 m/s 764 mmHg 74%
03:00 +14°C° 0 mm 4 m/s 764 mmHg 74%
04:00 +14°C° 0 mm 4 m/s 764 mmHg 75%
05:00 +14°C° 0 mm 3 m/s 764 mmHg 76%
06:00 +15°C° 0 mm 4 m/s 764 mmHg 67%
07:00 +17°C° 0 mm 4 m/s 765 mmHg 57%
08:00 +19°C° 0 mm 4 m/s 765 mmHg 48%
09:00 +21°C° 0 mm 4 m/s 765 mmHg 42%
10:00 +22°C° 0 mm 4 m/s 764 mmHg 36%
11:00 +25°C° 0 mm 4 m/s 764 mmHg 30%
12:00 +25°C° 0 mm 5 m/s 764 mmHg 31%
13:00 +26°C° 0 mm 5 m/s 763 mmHg 31%
14:00 +26°C° 0 mm 6 m/s 763 mmHg 32%
15:00 +24°C° 0 mm 6 m/s 763 mmHg 36%
16:00 +22°C° 0 mm 6 m/s 762 mmHg 41%
17:00 +21°C° 0 mm 6 m/s 762 mmHg 46%
18:00 +20°C° 0 mm 6 m/s 763 mmHg 53%
19:00 +19°C° 0 mm 6 m/s 763 mmHg 61%
20:00 +17°C° 0 mm 5 m/s 763 mmHg 68%
21:00 +16°C° 0 mm 5 m/s 763 mmHg 72%
22:00 +16°C° 0 mm 5 m/s 763 mmHg 76%
23:00 +16°C° 0 mm 5 m/s 763 mmHg 80%

27 Setembro, Domingo

Tempo Temperatura Precipitação Vento Pressão Humidade
00:00 +16°C° 0 mm 5 m/s 762 mmHg 82%
01:00 +16°C° 0 mm 5 m/s 762 mmHg 83%
02:00 +16°C° 0 mm 5 m/s 762 mmHg 84%
03:00 +15°C° 0 mm 5 m/s 761 mmHg 84%
04:00 +15°C° 0 mm 5 m/s 761 mmHg 83%
05:00 +15°C° 0 mm 5 m/s 761 mmHg 83%
06:00 +17°C° 0 mm 6 m/s 761 mmHg 76%
07:00 +19°C° 0 mm 6 m/s 761 mmHg 69%
08:00 +20°C° 0 mm 6 m/s 761 mmHg 62%
09:00 +22°C° 0 mm 6 m/s 761 mmHg 56%
10:00 +23°C° 0 mm 6 m/s 761 mmHg 50%
11:00 +24°C° 0 mm 6 m/s 761 mmHg 44%
12:00 +26°C° 0 mm 7 m/s 760 mmHg 44%
13:00 +26°C° 0 mm 7 m/s 760 mmHg 44%
14:00 +26°C° 0 mm 8 m/s 759 mmHg 44%
15:00 +23°C° 0 mm 7 m/s 759 mmHg 50%
16:00 +22°C° 0 mm 7 m/s 759 mmHg 57%
17:00 +20°C° 0 mm 7 m/s 759 mmHg 63%
18:00 +18°C° 0 mm 7 m/s 759 mmHg 68%
19:00 +18°C° 0 mm 7 m/s 760 mmHg 73%
20:00 +17°C° 0 mm 6 m/s 760 mmHg 77%
21:00 +17°C° 0 mm 6 m/s 760 mmHg 79%
22:00 +16°C° 0 mm 6 m/s 760 mmHg 81%
23:00 +16°C° 0 mm 6 m/s 759 mmHg 83%

28 Setembro, Segunda-feira

Tempo Temperatura Precipitação Vento Pressão Humidade
00:00 +16°C° 0 mm 6 m/s 759 mmHg 84%
01:00 +16°C° 0 mm 5 m/s 759 mmHg 86%
02:00 +16°C° 0 mm 5 m/s 758 mmHg 87%
03:00 +16°C° 0 mm 5 m/s 758 mmHg 87%
04:00 +15°C° 0 mm 5 m/s 758 mmHg 87%
05:00 +15°C° 0 mm 4 m/s 758 mmHg 87%
06:00 +17°C° 0 mm 5 m/s 758 mmHg 81%
07:00 +19°C° 0 mm 5 m/s 758 mmHg 75%
08:00 +20°C° 0 mm 5 m/s 759 mmHg 69%
09:00 +22°C° 0 mm 5 m/s 758 mmHg 62%
10:00 +23°C° 0 mm 5 m/s 758 mmHg 56%
11:00 +26°C° 0 mm 5 m/s 758 mmHg 50%
12:00 +24°C° 0 mm 6 m/s 758 mmHg 50%
13:00 +24°C° 0 mm 6 m/s 757 mmHg 51%
14:00 +24°C° 0 mm 7 m/s 757 mmHg 51%
15:00 +23°C° 0 mm 7 m/s 757 mmHg 55%
16:00 +22°C° 0 mm 7 m/s 757 mmHg 59%
17:00 +20°C° 0 mm 7 m/s 757 mmHg 62%
18:00 +20°C° 0 mm 6 m/s 757 mmHg 66%
19:00 +19°C° 0 mm 6 m/s 758 mmHg 70%
20:00 +19°C° 0 mm 6 m/s 758 mmHg 73%
21:00 +19°C° 0 mm 6 m/s 758 mmHg 74%
22:00 +17°C° 0 mm 5 m/s 758 mmHg 76%
23:00 +17°C° 0 mm 5 m/s 758 mmHg 77%
Mostrar mais